Location: Marseilles
(40.7010°N, 83.3930°W)
Time: 15:47:37
(UTC-04:00)

Cosmos 1459 Rocket - Visible Passes

Search period start: 26 May 2018 00:00
Search period end: 05 June 2018 00:00
Orbit: 937 x 1000 km, 83.0° (Epoch: 25 May)

Date Brightness Start Highest point End Pass type
(mag) Time Alt. Az. Time Alt. Az. Time Alt. Az.
26 May 6.5 22:00:00 10° WSW 22:04:31 22° WNW 22:09:06 10° NNW visible
27 May 7.0 22:26:07 10° W 22:28:23 12° WNW 22:30:39 10° NW visible
29 May 6.2 21:24:05 10° SW 21:29:12 28° WNW 21:34:23 10° NNW visible
30 May 6.8 21:49:19 10° WSW 21:52:58 16° WNW 21:56:39 10° NNW visible
03 Jun 7.3 21:39:17 10° W 21:41:27 12° WNW 21:43:39 10° NW visible
04 Jun 7.4 05:02:29 10° NE 05:04:24 11° ENE 05:06:18 10° E visible
